CW7104 Weather Reports


time (UTC)temp
F
wind
direction
speed
knots
gust
knots
rain 1hr
in
rain 24hr
in
rain mn
in
humidity
%
barometer
mb
20260507020905 52 15 0.0 0.0 0.00 0.00 0.00 70 1016.4
20260507020405 52 15 0.0 0.0 0.00 0.00 0.00 70 1016.4
20260507015405 52 15 0.0 0.0 0.00 0.00 0.00 69 1016.3
20260507014904 53 15 0.0 0.0 0.00 0.00 0.00 68 1016.2
20260507014405 53 15 0.0 0.0 0.00 0.00 0.00 68 1016.1
20260507013904 53 15 0.0 0.0 0.00 0.00 0.00 67 1016.2
20260507013405 54 15 0.0 0.0 0.00 0.00 0.00 66 1016.0
20260507011904 55 15 0.0 0.0 0.00 0.00 0.00 65 1015.4
20260507011405 55 15 0.0 0.0 0.00 0.00 0.00 64 1015.5
20260507005905 57 15 0.0 0.0 0.00 0.00 0.00 63 1015.4
20260507005405 57 15 0.0 0.0 0.00 0.00 0.00 62 1015.3
20260507004904 57 13 0.0 0.0 0.00 0.00 0.00 61 1015.2
20260507003904 58 10 0.0 0.0 0.00 0.00 0.00 61 1015.3
20260507003405 58 13 0.0 0.0 0.00 0.00 0.00 61 1015.4
20260507002905 58 13 0.0 0.0 0.00 0.00 0.00 60 1015.3
20260507002404 58 14 0.0 0.0 0.00 0.00 0.00 59 1015.2
20260507001404 59 14 0.0 0.0 0.00 0.00 0.00 58 1015.2
20260507000905 59 14 0.0 0.0 0.00 0.00 0.00 57 1015.2
20260507000406 59 14 0.0 0.0 0.00 0.00 0.00 56 1015.0
20260506235905 60 14 0.0 0.0 0.00 0.00 0.00 55 1015.1
20260506235404 60 14 0.0 0.0 0.00 0.00 0.00 54 1014.9
20260506233904 61 38 0.0 0.0 0.00 0.00 0.00 53 1014.8
20260506233404 61 27 0.0 0.0 0.00 0.00 0.00 51 1014.9
20260506232905 61 40 0.0 0.0 0.00 0.00 0.00 51 1015.0
20260506232405 61 10 0.0 0.0 0.00 0.00 0.00 52 1015.0
20260506231404 61 329 0.0 0.0 0.00 0.00 0.00 51 1014.9
20260506230404 61 348 0.0 0.0 0.00 0.00 0.00 51 1014.8
20260506225904 61 305 0.0 0.0 0.00 0.00 0.00 52 1015.0
20260506225405 60 315 0.0 5.2 0.00 0.00 0.00 52 1015.0
20260506224405 60 44 0.9 6.1 0.00 0.00 0.00 51 1015.1
20260506223905 60 350 0.9 4.3 0.00 0.00 0.00 49 1015.0
20260506223404 61 348 0.0 4.3 0.00 0.00 0.00 53 1015.0
20260506222904 61 6 0.0 0.9 0.00 0.00 0.00 57 1015.2
20260506222405 60 341 0.0 2.6 0.00 0.00 0.00 57 1015.2
20260506221905 60 333 0.0 4.3 0.00 0.00 0.00 55 1015.1
20260506221405 60 343 0.9 5.2 0.00 0.00 0.00 54 1015.2
20260506220904 60 350 0.0 0.0 0.00 0.00 0.00 53 1015.2
20260506220405 60 0 0.0 0.0 0.00 0.00 0.00 53 1015.1
20260506215904 60 355 0.0 0.9 0.00 0.00 0.00 53 1015.2
20260506215405 61 356 0.9 5.2 0.00 0.00 0.00 52 1015.2
20260506214904 61 326 1.7 7.0 0.00 0.00 0.00 50 1015.1
20260506214404 61 23 0.9 5.2 0.00 0.00 0.00 51 1015.1
20260506213904 61 346 0.9 6.1 0.00 0.00 0.00 50 1015.0
20260506213405 62 354 0.9 10.4 0.00 0.00 0.00 50 1014.9
20260506212904 62 355 0.0 10.4 0.00 0.00 0.00 51 1014.8
20260506212404 61 13 0.9 4.3 0.00 0.00 0.00 52 1014.6
20260506211905 61 297 0.9 7.0 0.00 0.00 0.00 50 1014.8
20260506210905 62 337 0.9 4.3 0.00 0.00 0.00 48 1015.2
20260506205904 62 26 1.7 5.2 0.00 0.00 0.00 50 1015.0
20260506204905 61 283 0.9 8.7 0.00 0.00 0.00 51 1015.1
20260506204404 61 337 1.7 5.2 0.00 0.00 0.00 52 1015.1
20260506203904 62 0 2.6 7.0 0.00 0.00 0.00 51 1015.4
20260506203405 63 340 0.0 1.7 0.00 0.00 0.00 51 1015.7
20260506202404 63 294 1.7 5.2 0.00 0.00 0.00 51 1015.7
20260506201904 63 330 1.7 7.0 0.00 0.00 0.00 50 1015.7
20260506201405 63 298 0.9 4.3 0.00 0.00 0.00 54 1015.6
20260506200904 63 63 0.9 4.3 0.00 0.00 0.00 54 1015.4
20260506200404 62 355 0.0 0.9 0.00 0.00 0.00 53 1015.8
20260506195905 62 0 0.9 4.3 0.00 0.00 0.00 53 1015.6
20260506195404 61 30 0.0 2.6 0.00 0.00 0.00 50 1015.5
20260506194904 61 9 0.9 5.2 0.00 0.00 0.00 54 1015.5
20260506194404 61 294 2.6 7.0 0.00 0.00 0.00 53 1015.5
20260506193904 61 332 0.0 0.0 0.00 0.00 0.00 52 1015.6
20260506193404 60 342 0.0 0.9 0.00 0.00 0.00 54 1015.7
20260506192905 60 300 0.9 4.3 0.00 0.00 0.00 51 1015.7
20260506192404 60 5 0.0 4.3 0.00 0.00 0.00 53 1015.7
20260506191904 60 336 0.0 5.2 0.00 0.00 0.00 50 1015.7
20260506191404 60 322 0.9 5.2 0.00 0.00 0.00 51 1015.6
20260506190904 61 322 0.9 6.1 0.00 0.00 0.00 50 1015.6
20260506190405 61 0 0.9 5.2 0.00 0.00 0.00 49 1015.4
20260506185904 61 21 2.6 7.0 0.00 0.00 0.00 53 1015.4
20260506185404 60 6 1.7 7.0 0.00 0.00 0.00 54 1015.5
20260506184904 60 3 3.5 7.0 0.00 0.00 0.00 51 1015.6
20260506183404 60 356 0.0 6.1 0.00 0.00 0.00 55 1015.6
20260506182905 60 320 1.7 5.2 0.00 0.00 0.00 52 1015.5
20260506182404 61 324 0.9 6.1 0.00 0.00 0.00 51 1015.6
20260506181904 61 20 4.3 7.0 0.00 0.00 0.00 50 1015.7
20260506181404 60 0 0.0 5.2 0.00 0.00 0.00 51 1015.8
20260506180904 60 6 4.3 7.8 0.00 0.00 0.00 50 1015.8
20260506180404 60 356 0.0 6.1 0.00 0.00 0.00 52 1015.7
20260506175904 60 305 0.0 0.9 0.00 0.00 0.00 50 1015.6
20260506175404 60 5 0.0 0.0 0.00 0.00 0.00 55 1015.6
20260506174904 60 4 0.0 0.0 0.00 0.00 0.00 56 1015.6
20260506174404 59 353 0.0 0.0 0.00 0.00 0.00 60 1015.6
20260506173904 58 8 0.0 0.0 0.00 0.00 0.00 60 1015.5
20260506173404 58 332 0.0 0.0 0.00 0.00 0.00 59 1015.6
20260506172904 58 347 0.0 0.0 0.00 0.00 0.00 57 1015.5
20260506172404 58 29 0.0 0.0 0.00 0.00 0.00 62 1015.5
20260506171904 57 303 0.0 0.0 0.00 0.00 0.00 59 1015.8
20260506170904 57 32 0.0 0.0 0.00 0.00 0.00 61 1015.9
20260506170404 56 24 0.0 0.0 0.00 0.00 0.00 63 1015.8
20260506165904 56 7 0.0 0.0 0.00 0.00 0.00 60 1015.9
20260506165404 56 350 0.0 0.0 0.00 0.00 0.00 64 1016.1
20260506164405 55 0 0.0 0.0 0.00 0.00 0.00 65 1016.0
20260506163904 55 333 0.0 0.0 0.00 0.00 0.00 64 1015.9
20260506163404 55 21 0.0 0.0 0.00 0.00 0.00 63 1015.9
20260506162904 55 56 0.0 0.0 0.00 0.00 0.00 66 1015.7
20260506162404 55 24 0.0 0.0 0.00 0.00 0.00 66 1015.7
20260506161904 55 346 0.0 0.0 0.00 0.00 0.00 66 1016.0
20260506160404 54 345 0.0 0.0 0.00 0.00 0.00 66 1016.0
20260506155904 54 15 0.0 0.0 0.00 0.00 0.00 68 1016.0
20260506155404 54 35 0.0 0.0 0.00 0.00 0.00 67 1016.0
20260506154404 54 37 0.0 0.0 0.00 0.00 0.00 67 1015.7
20260506153904 54 10 0.0 0.0 0.00 0.00 0.00 67 1015.9
20260506153404 54 16 0.0 0.0 0.00 0.00 0.00 67 1015.6
20260506152904 54 25 0.0 0.0 0.00 0.00 0.00 67 1015.6
20260506152404 54 19 0.0 1.7 0.00 0.00 0.00 68 1015.7
20260506151904 54 7 1.7 4.3 0.00 0.00 0.00 68 1015.9
20260506151403 54 8 0.0 0.0 0.00 0.00 0.00 68 1015.8
20260506150904 54 8 0.0 0.0 0.00 0.00 0.00 67 1015.7
20260506150404 54 8 0.0 0.0 0.00 0.00 0.00 66 1015.6
20260506145904 54 7 0.0 0.0 0.00 0.00 0.00 69 1015.6
20260506144903 54 9 0.0 1.7 0.00 0.00 0.00 68 1015.8
20260506143904 54 12 0.0 1.7 0.00 0.00 0.00 70 1015.2
20260506143404 54 0 0.0 5.2 0.00 0.00 0.00 70 1015.2
20260506142903 54 9 2.6 6.1 0.00 0.00 0.00 72 1015.2
20260506142404 53 8 2.6 5.2 0.00 0.00 0.00 73 1014.9
20260506141904 53 22 0.9 4.3 0.00 0.00 0.00 73 1014.9
20260506141404 53 20 1.7 10.4 0.00 0.00 0.00 73 1014.8
20260506140404 52 29 0.0 5.2 0.00 0.00 0.00 76 1014.8
20260506135904 51 5 0.0 4.3 0.00 0.00 0.00 76 1014.5
20260506135404 51 33 2.6 6.1 0.00 0.00 0.00 77 1014.5
20260506134904 51 7 1.7 7.0 0.00 0.00 0.00 78 1014.5
20260506133403 50 11 2.6 6.1 0.00 0.00 0.00 80 1014.0
20260506132404 49 22 0.0 0.0 0.00 0.00 0.00 80 1014.2
20260506131904 49 20 0.0 0.9 0.00 0.00 0.00 81 1014.4
20260506130904 49 26 0.0 1.7 0.00 0.00 0.00 81 1014.4
20260506130404 49 324 0.0 0.0 0.00 0.00 0.00 81 1014.7
20260506125903 49 324 0.0 0.0 0.00 0.00 0.00 81 1014.7
20260506125404 48 354 0.0 2.6 0.00 0.00 0.00 81 1014.3
20260506124404 48 329 0.0 0.0 0.00 0.00 0.00 82 1014.2
20260506123904 48 321 0.0 0.0 0.00 0.00 0.00 82 1014.3
20260506123404 47 321 0.0 0.0 0.00 0.00 0.00 82 1014.1
20260506122904 47 321 0.0 0.0 0.00 0.00 0.00 82 1014.1
20260506122405 47 321 0.0 0.0 0.00 0.00 0.00 82 1014.1
20260506121903 47 322 0.0 0.0 0.00 0.00 0.00 82 1014.1
20260506121404 47 321 0.0 0.0 0.00 0.00 0.00 82 1013.8
20260506120404 47 321 0.0 0.0 0.00 0.00 0.00 82 1013.8
20260506115903 47 321 0.0 0.0 0.00 0.00 0.00 82 1013.9
20260506115404 46 321 0.0 0.0 0.00 0.00 0.00 82 1013.5
20260506114904 46 321 0.0 0.0 0.00 0.00 0.00 82 1013.5
20260506114403 47 321 0.0 0.0 0.00 0.00 0.00 82 1013.5
20260506113904 46 0 0.0 0.0 0.00 0.00 0.00 82 1013.0
20260506113404 46 0 0.0 0.0 0.00 0.00 0.00 82 1012.9
20260506112903 46 0 0.0 0.0 0.00 0.00 0.00 82 1012.9
20260506112405 46 0 0.0 0.0 0.00 0.00 0.00 82 1013.2
20260506111904 46 0 0.0 0.0 0.00 0.00 0.00 82 1013.5
20260506111404 46 0 0.0 0.0 0.00 0.00 0.00 82 1013.3
20260506110903 46 0 0.0 0.0 0.00 0.00 0.00 82 1013.2
20260506110404 46 0 0.0 0.0 0.00 0.00 0.00 82 1012.9
20260506105903 46 0 0.0 0.0 0.00 0.00 0.00 82 1012.9
20260506105404 46 0 0.0 0.0 0.00 0.00 0.00 82 1013.1
20260506104904 46 0 0.0 0.0 0.00 0.00 0.00 82 1012.9
20260506104403 46 0 0.0 0.0 0.00 0.00 0.00 82 1012.7
20260506103904 46 0 0.0 0.0 0.00 0.00 0.00 82 1012.8
20260506103404 46 0 0.0 0.0 0.00 0.00 0.00 82 1013.1
20260506102904 46 0 0.0 0.0 0.00 0.00 0.00 82 1012.7
20260506102403 46 0 0.0 0.0 0.00 0.00 0.00 82 1012.4
20260506101904 46 0 0.0 0.0 0.00 0.00 0.00 82 1012.3
20260506100904 46 0 0.0 0.0 0.00 0.00 0.00 82 1012.3
20260506100403 46 0 0.0 0.0 0.00 0.00 0.00 82 1012.2
20260506095904 46 10 0.0 0.0 0.00 0.00 0.00 82 1012.3
20260506095403 46 10 0.0 0.0 0.00 0.00 0.00 82 1012.0
20260506094403 46 18 0.0 0.0 0.00 0.00 0.00 82 1011.9
20260506093904 46 11 0.0 0.0 0.00 0.00 0.00 82 1011.8
20260506093404 46 11 0.0 0.0 0.00 0.00 0.00 82 1011.8
20260506092903 46 10 0.0 0.0 0.00 0.00 0.00 82 1011.6
20260506092404 46 12 0.0 0.0 0.00 0.00 0.00 82 1011.8
20260506091404 46 5 0.0 0.0 0.00 0.00 0.00 83 1011.9
20260506090904 46 14 0.0 0.0 0.00 0.00 0.00 83 1012.1
20260506090405 46 13 0.0 0.9 0.00 0.00 0.00 83 1012.0
20260506085905 46 1 0.9 5.2 0.00 0.00 0.00 83 1011.3
20260506085405 45 350 0.0 0.0 0.00 0.00 0.00 83 1011.9
20260506084905 45 354 0.0 0.0 0.00 0.00 0.00 83 1011.9
20260506084405 45 352 0.0 0.0 0.00 0.00 0.00 83 1011.7
20260506083906 45 355 0.0 0.0 0.00 0.00 0.00 83 1011.6
20260506083405 45 355 0.0 0.0 0.00 0.00 0.00 83 1011.6
20260506082905 45 353 0.0 0.0 0.00 0.00 0.00 83 1011.5
20260506082406 45 355 0.0 0.0 0.00 0.00 0.00 83 1011.4
20260506081905 45 351 0.0 0.0 0.00 0.00 0.00 83 1011.8
20260506080405 45 351 0.0 0.0 0.00 0.00 0.00 83 1011.4
20260506072406 45 0 0.9 4.3 0.00 0.00 0.00 83 1010.4
20260506071905 45 13 0.0 7.0 0.00 0.00 0.00 83 1009.7
20260506071405 45 7 4.3 8.7 0.00 0.00 0.00 83 1009.3
20260506070905 46 7 4.3 10.4 0.00 0.00 0.00 83 1009.2
20260506070405 46 7 4.3 10.4 0.00 0.00 0.00 83 1009.4
20260506062405 47 7 0.0 2.6 0.00 0.00 0.00 83 1010.9
20260506061904 47 355 0.0 4.3 0.00 0.00 0.00 83 1010.9
20260506061405 48 353 0.0 6.1 0.00 0.00 0.00 83 1011.1
20260506060905 48 10 0.0 0.0 0.00 0.00 0.00 83 1010.9
20260506060405 48 350 0.0 0.0 0.00 0.00 0.00 83 1010.7
20260506051405 49 355 0.9 5.2 0.00 0.00 0.00 83 1010.4
20260506050906 49 358 1.7 7.8 0.00 0.00 0.00 83 1010.3
20260506050405 49 354 0.9 5.2 0.00 0.00 0.00 83 1010.5
20260506044905 49 9 1.7 8.7 0.00 0.00 0.00 83 1009.9
20260506044405 49 12 1.7 7.0 0.00 0.00 0.00 83 1009.9
20260506043905 49 19 2.6 6.1 0.00 0.00 0.00 83 1010.0
20260506043405 49 1 0.9 10.4 0.00 0.00 0.00 83 1010.1
20260506042905 49 3 4.3 7.0 0.00 0.00 0.00 83 1010.1
20260506042405 49 333 0.0 6.1 0.00 0.00 0.00 83 1010.1
20260506041905 49 328 1.7 4.3 0.00 0.00 0.00 83 1010.1
20260506040904 49 358 0.0 0.0 0.00 0.00 0.00 83 1009.6
20260506040405 49 0 1.7 7.0 0.00 0.00 0.00 83 1009.6
20260506035905 49 33 1.7 8.7 0.00 0.00 0.00 83 1009.6
20260506035405 49 8 4.3 8.7 0.00 0.00 0.00 83 1009.1
20260506034905 49 13 0.9 2.6 0.00 0.00 0.00 83 1009.6
20260506034405 49 20 0.9 5.2 0.00 0.00 0.00 83 1009.4
20260506033905 49 0 0.0 2.6 0.00 0.00 0.00 83 1009.4
20260506033405 49 14 0.0 5.2 0.00 0.00 0.00 83 1009.4
20260506031904 50 355 0.9 7.0 0.00 0.00 0.00 83 1009.6
20260506031405 50 317 0.0 6.1 0.00 0.00 0.00 83 1009.7
20260506030905 50 19 1.7 7.0 0.00 0.00 0.00 83 1009.5
20260506030404 50 10 1.7 5.2 0.00 0.00 0.00 83 1009.2
20260506025905 50 25 0.0 6.1 0.00 0.00 0.00 83 1009.0
20260506025405 50 6 1.7 7.0 0.00 0.00 0.00 83 1008.8
20260506024906 50 8 3.5 7.8 0.00 0.00 0.00 83 1008.7
20260506024406 50 14 0.9 7.0 0.00 0.00 0.00 83 1008.8
20260506023904 50 74 0.0 0.9 0.00 0.00 0.00 83 1008.8
20260506023405 50 22 0.0 1.7 0.00 0.00 0.00 83 1008.9
20260506022905 51 19 0.0 0.0 0.00 0.00 0.00 83 1008.9
20260506021405 50 333 0.0 1.7 0.00 0.00 0.00 83 1009.0